When you browse on this site, cookies collect data to enhance your experience and personalize the content and advertising you see.
Visit our Privacy Policy to learn more. By continuing to use the site, you agree to this use of cookies and data.
  • In United Kingdom
  • List of Countries
  • For 7 days
  • Water Temperature
  • Satellite Maps
  • Weather Map
  • Weather Widgets
  • user-avatar
    Login

    Hourly Weather Ozod

    Today, 25 March, Monday

    Time Temperature Precipitation Wind Pressure Humidity
    00:00 +14°C° 0 mm 3 mps 727 mmHg 38%
    01:00 +13°C° 0 mm 3 mps 727 mmHg 39%
    02:00 +13°C° 0 mm 3 mps 727 mmHg 40%
    03:00 +12°C° 0 mm 3 mps 727 mmHg 40%
    04:00 +12°C° 0 mm 3 mps 727 mmHg 40%
    05:00 +11°C° 0 mm 3 mps 727 mmHg 39%
    06:00 +12°C° 0 mm 3 mps 727 mmHg 38%
    07:00 +13°C° 0 mm 3 mps 727 mmHg 36%
    08:00 +13°C° 0 mm 3 mps 727 mmHg 34%
    09:00 +16°C° 0 mm 2 mps 726 mmHg 30%
    10:00 +18°C° 0 mm 2 mps 726 mmHg 27%
    11:00 +19°C° 0 mm 2 mps 726 mmHg 23%
    12:00 +21°C° 0 mm 1 mps 726 mmHg 22%
    13:00 +22°C° 0 mm 1 mps 725 mmHg 20%
    14:00 +23°C° 0 mm 1 mps 725 mmHg 19%
    15:00 +23°C° 0 mm 1 mps 726 mmHg 19%
    16:00 +23°C° 0 mm 1 mps 726 mmHg 18%
    17:00 +23°C° 0 mm 1 mps 726 mmHg 18%
    18:00 +22°C° 0 mm 1 mps 726 mmHg 21%
    19:00 +20°C° 0 mm 2 mps 727 mmHg 24%
    20:00 +19°C° 0 mm 3 mps 728 mmHg 26%
    21:00 +18°C° 0 mm 3 mps 728 mmHg 29%
    22:00 +17°C° 0 mm 4 mps 728 mmHg 31%
    23:00 +15°C° 0 mm 4 mps 728 mmHg 33%

    Tomorrow, 26 March, Tuesday

    Time Temperature Precipitation Wind Pressure Humidity
    00:00 +15°C° 0 mm 4 mps 728 mmHg 34%
    01:00 +14°C° 0 mm 4 mps 728 mmHg 34%
    02:00 +14°C° 0 mm 4 mps 728 mmHg 34%
    03:00 +13°C° 0 mm 4 mps 728 mmHg 34%
    04:00 +13°C° 0 mm 4 mps 727 mmHg 33%
    05:00 +13°C° 0 mm 3 mps 727 mmHg 33%
    06:00 +14°C° 0 mm 4 mps 727 mmHg 32%
    07:00 +14°C° 0 mm 4 mps 727 mmHg 30%
    08:00 +15°C° 0 mm 4 mps 727 mmHg 29%
    09:00 +19°C° 0 mm 4 mps 726 mmHg 24%
    10:00 +21°C° 0 mm 3 mps 726 mmHg 20%
    11:00 +24°C° 0 mm 3 mps 725 mmHg 15%
    12:00 +25°C° 0 mm 3 mps 725 mmHg 14%
    13:00 +26°C° 0 mm 3 mps 724 mmHg 12%
    14:00 +27°C° 0 mm 3 mps 724 mmHg 11%
    15:00 +27°C° 0 mm 3 mps 723 mmHg 12%
    16:00 +27°C° 0 mm 3 mps 723 mmHg 14%
    17:00 +26°C° 0 mm 3 mps 723 mmHg 15%
    18:00 +25°C° 0 mm 3 mps 723 mmHg 18%
    19:00 +24°C° 0 mm 3 mps 723 mmHg 21%
    20:00 +21°C° 0 mm 3 mps 723 mmHg 24%
    21:00 +20°C° 0 mm 3 mps 723 mmHg 24%
    22:00 +20°C° 0 mm 3 mps 723 mmHg 25%
    23:00 +19°C° 0 mm 3 mps 723 mmHg 25%

    Day after tomorrow, 27 March, Wednesday

    Time Temperature Precipitation Wind Pressure Humidity
    00:00 +19°C° 0 mm 3 mps 723 mmHg 25%
    01:00 +19°C° 0 mm 3 mps 723 mmHg 25%
    02:00 +18°C° 0 mm 2 mps 722 mmHg 25%
    03:00 +18°C° 0 mm 2 mps 723 mmHg 26%
    04:00 +18°C° 0 mm 2 mps 723 mmHg 28%
    05:00 +18°C° 0 mm 2 mps 723 mmHg 29%
    06:00 +18°C° 0 mm 2 mps 723 mmHg 30%
    07:00 +18°C° 0 mm 2 mps 723 mmHg 31%
    08:00 +18°C° 0 mm 2 mps 723 mmHg 33%
    09:00 +20°C° 0 mm 2 mps 723 mmHg 29%
    10:00 +21°C° 0 mm 2 mps 723 mmHg 26%
    11:00 +24°C° 0 mm 2 mps 723 mmHg 23%
    12:00 +25°C° 0 mm 2 mps 722 mmHg 22%
    13:00 +26°C° 0 mm 2 mps 722 mmHg 21%
    14:00 +27°C° 0 mm 2 mps 721 mmHg 20%
    15:00 +26°C° 0 mm 2 mps 721 mmHg 21%
    16:00 +26°C° 0 mm 2 mps 721 mmHg 22%
    17:00 +26°C° 0 mm 1 mps 721 mmHg 23%
    18:00 +25°C° 0 mm 2 mps 721 mmHg 26%
    19:00 +24°C° 0 mm 2 mps 722 mmHg 30%
    20:00 +23°C° 0 mm 2 mps 722 mmHg 33%
    21:00 +23°C° 0 mm 2 mps 722 mmHg 36%
    22:00 +21°C° 0 mm 2 mps 722 mmHg 40%
    23:00 +21°C° 0 mm 2 mps 722 mmHg 43%

    28 March, Thursday

    Time Temperature Precipitation Wind Pressure Humidity
    00:00 +20°C° 0 mm 2 mps 722 mmHg 44%
    01:00 +19°C° 0 mm 2 mps 722 mmHg 45%
    02:00 +20°C° 0 mm 1 mps 721 mmHg 45%
    03:00 +19°C° 0 mm 2 mps 722 mmHg 46%
    04:00 +18°C° 0 mm 2 mps 722 mmHg 47%
    05:00 +18°C° 0 mm 2 mps 722 mmHg 47%
    06:00 +18°C° 0.2 mm 2 mps 722 mmHg 52%
    07:00 +17°C° 0.2 mm 2 mps 723 mmHg 56%
    08:00 +17°C° 0.2 mm 2 mps 723 mmHg 60%
    09:00 +17°C° 0.1 mm 2 mps 723 mmHg 60%
    10:00 +18°C° 0.1 mm 2 mps 723 mmHg 59%
    11:00 +18°C° 0.1 mm 3 mps 724 mmHg 59%
    12:00 +20°C° 0 mm 2 mps 723 mmHg 53%
    13:00 +21°C° 0 mm 2 mps 723 mmHg 46%
    14:00 +24°C° 0 mm 2 mps 723 mmHg 39%
    15:00 +24°C° 0 mm 2 mps 723 mmHg 39%
    16:00 +24°C° 0 mm 1 mps 723 mmHg 38%
    17:00 +24°C° 0 mm 1 mps 723 mmHg 38%
    18:00 +24°C° 0 mm 1 mps 724 mmHg 41%
    19:00 +23°C° 0 mm 1 mps 724 mmHg 45%
    20:00 +22°C° 0 mm 1 mps 724 mmHg 48%
    21:00 +21°C° 0 mm 1 mps 724 mmHg 50%
    22:00 +20°C° 0 mm 2 mps 724 mmHg 51%
    23:00 +19°C° 0 mm 3 mps 724 mmHg 53%

    29 March, Friday

    Time Temperature Precipitation Wind Pressure Humidity
    00:00 +19°C° 0 mm 3 mps 723 mmHg 52%
    01:00 +18°C° 0 mm 3 mps 722 mmHg 52%
    02:00 +18°C° 0 mm 3 mps 722 mmHg 51%
    03:00 +18°C° 0 mm 3 mps 721 mmHg 50%
    04:00 +17°C° 0 mm 2 mps 721 mmHg 49%
    05:00 +17°C° 0 mm 2 mps 720 mmHg 48%
    06:00 +17°C° 0 mm 2 mps 720 mmHg 46%
    07:00 +18°C° 0 mm 2 mps 720 mmHg 45%
    08:00 +20°C° 0 mm 1 mps 720 mmHg 43%
    09:00 +20°C° 0 mm 2 mps 721 mmHg 41%
    10:00 +22°C° 0 mm 3 mps 721 mmHg 38%
    11:00 +23°C° 0 mm 4 mps 721 mmHg 36%
    12:00 +25°C° 0 mm 4 mps 721 mmHg 33%
    13:00 +26°C° 0 mm 3 mps 721 mmHg 31%
    14:00 +27°C° 0 mm 3 mps 721 mmHg 28%
    15:00 +26°C° 0 mm 3 mps 721 mmHg 29%
    16:00 +26°C° 0 mm 3 mps 721 mmHg 30%
    17:00 +26°C° 0 mm 3 mps 721 mmHg 32%
    18:00 +24°C° 0 mm 3 mps 721 mmHg 37%
    19:00 +22°C° 0 mm 3 mps 721 mmHg 43%
    20:00 +21°C° 0 mm 3 mps 721 mmHg 49%
    21:00 +20°C° 0 mm 3 mps 721 mmHg 53%
    22:00 +19°C° 0 mm 2 mps 720 mmHg 57%
    23:00 +19°C° 0 mm 2 mps 720 mmHg 61%

    30 March, Saturday

    Time Temperature Precipitation Wind Pressure Humidity
    00:00 +18°C° 0 mm 2 mps 719 mmHg 63%
    01:00 +17°C° 0 mm 2 mps 719 mmHg 66%
    02:00 +17°C° 0 mm 2 mps 719 mmHg 68%
    03:00 +16°C° 0 mm 2 mps 719 mmHg 69%
    04:00 +16°C° 0 mm 2 mps 719 mmHg 71%
    05:00 +15°C° 0 mm 2 mps 719 mmHg 72%
    06:00 +14°C° 0 mm 4 mps 719 mmHg 71%
    07:00 +14°C° 0 mm 5 mps 720 mmHg 70%
    08:00 +14°C° 0 mm 6 mps 721 mmHg 69%
    09:00 +14°C° 1.2 mm 5 mps 721 mmHg 73%
    10:00 +13°C° 1.2 mm 5 mps 722 mmHg 76%
    11:00 +12°C° 1.2 mm 4 mps 722 mmHg 80%
    12:00 +13°C° 0.5 mm 4 mps 723 mmHg 77%
    13:00 +13°C° 0.5 mm 3 mps 723 mmHg 74%
    14:00 +13°C° 0.5 mm 3 mps 723 mmHg 70%
    15:00 +14°C° 0 mm 3 mps 724 mmHg 69%
    16:00 +14°C° 0 mm 3 mps 724 mmHg 67%
    17:00 +14°C° 0 mm 4 mps 724 mmHg 65%
    18:00 +14°C° 0 mm 4 mps 725 mmHg 67%
    19:00 +13°C° 0 mm 3 mps 725 mmHg 68%
    20:00 +13°C° 0 mm 3 mps 726 mmHg 70%
    21:00 +13°C° 0 mm 3 mps 726 mmHg 70%
    22:00 +12°C° 0 mm 3 mps 726 mmHg 70%
    23:00 +12°C° 0 mm 3 mps 726 mmHg 70%
    Show more